Baraga, MI

9:10 PM EDT on August 28, 2015 (GMT -0400)
APRSWXNET | | Change Station
CLOSE
Current Station
Personal Weather Station
Location: L'Anse, MI
Elevation: 702 ft
Nearby Weather Stations

Elev 702 ft 46.84 °N, 88.38 °W | Updated 22 minutes ago

Overcast
Overcast
69 °F
Feels Like 69 °F
N
2
Wind Variable Wind from ENE
Gusts 7.0 mph

Today
High -- | Low -- °F
--% Chance of Precip.
Yesterday
High -- | Low -- °F
Precip. -- in
7:08 AM 8:41 PM
Waxing Gibbous, 99% visible
Pressure 29.97 in
Visibility 8.0 miles
Clouds Few 2600 ft
Scattered Clouds 7500 ft
Overcast 10000 ft
Dew Point 65 °F
Humidity 87%
Rainfall in
Snow Depth Not available.
UV 0 out of 12
Pollen 5.00 out of 12
Air Quality Not available.
Flu Activity Not available.
METAR KCMX 290053Z AUTO 23005KT 8SM -RA FEW026 SCT075 OVC100 19/18 A2997 RMK AO2 SLP148 P0006 T01940178 TSNO $
Pressure 29.97 in
Visibility 8.0 miles
Clouds Few 2600 ft
Scattered Clouds 7500 ft
Overcast 10000 ft
Dew Point 65 °F
Humidity 87%
Rainfall in
Snow Depth Not available.
UV 0 out of 12
Pollen 5.00 out of 12
Air Quality Not available.
Flu Activity Not available.
METAR KCMX 290053Z AUTO 23005KT 8SM -RA FEW026 SCT075 OVC100 19/18 A2997 RMK AO2 SLP148 P0006 T01940178 TSNO $

10-Day Weather Forecast

×

Almanac

Astronomy

Aug. 28, 2015 Rise Set
Actual Time
Civil Twilight
Nautical Twilight
Astronomical Twilight
Moon
Length of Visible Light
Length of Day
Tomorrow will be .
, % of the Moon is Illuminated

Today's Extremes

State Highs State Lows

Community

WunderPhotos

Upload Photos

1,850,561 photos uploaded!

WunderBlogs® & News

Nearby

Air Quality

  Air Quality AQ Index Pollutant
Not available.

Snow Depth

Station Depth Elevation

Earthquake Activity

City Distance Mag. Time & Date
Minimum magnitude displayed is 2.5.

Coastal Water Temperatures

Place Temperature

Stations

Nearby Weather Stations

Station Location Temp. Windchill Dew Point Humidity Wind Precip. Elev Updated Type